Back to catalog

HEAD-3E

AliveCommunicationsLEO
NORAD 57630·PAYLOAD·🇨🇳 China

Launched Aug 14, 2023 from Xichang Satellite Launch Center

Loading…

Next Passes (next 24 hours)

TLE

FreshSource: Space-Track

Epoch: Sep 14, 2026, 08:34 UTC

1 57630U 23121E   26257.35697101  .00000513  00000-0  12813-3 0  9991
2 57630  45.0021 206.9153 0008534 358.6479   1.4355 14.63981668164958

Track HEAD-3E in real time with AllMySat

Download on the App Store